Dauntless Aviation
Airports Europe Portugal
LPPT
LIS

Humberto Delgado Airport (Lisbon Portela Airport)

Lisbon, PORTUGAL

Airport Info
Suggest Updated Information for this Airport

Location

Latitude / Longitude: 38°46'52"N / 9°8'9"W
  38°46.878'N / 9°8.154'W
  38.7813 / -9.1359

Nearby radio navigation aids

CP CAPARICA NDB. 31.5° 9.1nm from CP to field.
LAR ARRUDA NDB. 204.2° 13.7nm from LAR to field.
LIS LISBOA VOR/DME. 173.9° 6.5nm from LIS to field.

Runway Information

Runway 03 /21

Dimensions: 12484 x 148 ft.
Surface: ASP
 
Runway 03
Runway 21
Latitude: 38.766431 38.792319
Longitude: -9.1439 -9.130047
Elevation: 329 ft. 329 ft.
Runway true heading: 21.5 201.5
 

Runway 17 /35

Dimensions: 7874 x 148 ft.
Surface: ASP
 
Runway 17
Runway 35
Latitude: 38.786233 38.766331
Longitude: -9.137269 -9.131919
Elevation: 373 ft. 373 ft.
Runway true heading: 166.5 346.5
 

Instrument Procedures

  Aerodrome Chart Marking and Lighting Aids)
  Aircraft Parking Docking Chart Apron 14 70 and 0)
  Aircraft Parking Docking Chart Apron 20 22 30 40 41 and 42)
  Aerodrome Chart
  Aircraft Parking Docking Chart Apron 10 11 12 50 and 60)
  Aerodrome Ground Movement Chart Rwy 03)
  Aerodrome Ground Movement Chart Rwy 21)

STARs (Standard Terminal Arrivals)

  STAR - Instrument (STAR) RNAV Rwy 21 EXONA3B IDBID5B INBOM3B XAMAX3B 5D)
  STAR - Instrument (STAR) RNAV Rwy 21 BUSEN3D LIGRA3D GAIOS3D TROIA3D UNPOT3D NAKOS3D)
  STAR - Instrument (STAR) RNAV CDO Rwy 03 INBOM5K XAMAX5K)
  STAR - Instrument (STAR) RNAV CDO Rwy 03 UNPOT3K)
  STAR - Instrument (STAR) Rwy 03-35 ESP9A/ FTM8A)
  STAR - Instrument (STAR) Rwy 21 ESP9B FTM8B)
  STAR - Instrument (STAR) RNAV Rwy 03-35 BUSEN1P EXONA5A GAIOST5A LIGRA5A NAKOS5A TROIA5A UNPOT5A)
  STAR - Instrument (STAR) RNAV Rwy 03-35 INBOM5A XAMAX5A 6C)
  STAR - Instrument (STAR) RNAV Rwy 21 BUSEN3B LIGRA3B GAIOS5B TROIA3B UNPOT3B NAKOS3B)

IAPs (Instrument Approach Procedures)

  L Rwy 21
  RNAV GNSS Rwy 03 CAT A-B-C-D
  (RNAV GNSS Rwy 21) CAT A-B-C-D
  ILS Rwy 03 CAT A-B-C-D
  ILS-2 Rwy 21
  DVOR/DME Rwy 35 CAT A-B-C-D
  NDB Rwy 03 CAT A-B-C-D
  Visual Approach Chart
  Visual Approach Procedure - Rwy 03
  Visual Approach Procedure - Rwy 35
  Aerodrome Information (Textual)
  ILS-1 Rwy 21
  Aerodrome Obstacle Chart - Type A (Rwy 03)
  Aerodrome Obstacle Chart - Type A (Rwy 21)
  Aerodrome Obstacle Chart - Type A (Rwy 17-35)
  Precision Approach Terrain Chart Rwy 21)

Departure Procedures

  SID - Instrument (SID) Rwy 21 ESP3S FTM2S)
  SID - Instrument (SID) RNAV Rwy 03-35 BUSEN4P GAIOS3N GANSU3N IDBID3N INBOM3N IXIDA3N LIGRA3N NAKOS3N TROIA3N)
  SID - Instrument (SID) RNAV Rwy 21 BUSEN6P EXONA7S GAIOS5S GANSU5S INBOM9S IXIDA9S LIGRA5S NAKOS5S TROIA5S)
  SID - Instrument (SID) Rwy 03-35 ESP2N FTM1N)
Satellite photo at:
Airport distance calculator
From:
Weather Reports

METAR

LPPT

LPPT 181300Z 05008KT 010V090 CAVOK 34/13 Q1017
LPMT
6.3nm SE
LPMT 181300Z 32008KT 290V350 CAVOK 34/15 Q1016
LPAR
7.8nm N
LPAR 181300Z /////KT CAVOK 36/13 Q1016
LPST
8.7nm W
LPST 181300Z 08003KT 020V190 CAVOK 34/13 Q1017
LPCS
10.4nm SW
LPCS 181300Z 04007KT 010V080 CAVOK 34/13 Q1017

TAF

LPPT
TAF LPPT 181100Z 1812/1918 06010KT CAVOK BECMG 1812/1815 VRB05KT TEMPO 1815/1820 9999 FEW025CB BECMG 1816/1818 34012KT BECMG 1823/1902 VRB03KT BECMG 1906/1908 18005KT BECMG 1912/1914 24010KT
LPMT
6.3nm SE
TAF LPMT 181108Z 1812/1912 02008KT CAVOK BECMG 1816/1818 33010KT TEMPO 1818/1820 34012G22KT BECMG 1821/1823 VRB02KT BECMG 1906/1908 14005KT
LPAR
7.8nm N
TAF LPAR 181110Z 1812/1821 04008KT CAVOK BECMG 1816/1818 35010KT TEMPO 1818/1820 36012G25KT
LPST
8.7nm W
TAF LPST 181109Z 1812/1821 04007KT CAVOK BECMG 1814/1816 36010KT TEMPO 1816/1820 01012G22KT
Safelog

 

Dauntless Aviation

© 2007-2018 Dauntless Aviation, all rights reserved
Information provided via PilotNav comes from a variety of official and unofficial data sources. As errors are possible, do not use PilotNav for primary flight planning purposes. Verify any information that you receive via PilotNav with current and canonical charts and other official documents. The material in this database is subject to database copyrights held by Dauntless Aviation and may not be copied without the express permission of Dauntless Aviation - licenses for use of part of all of this data are available for purchase; enquire via the Dauntless Aviation helpdesk. A number of mechanisms and markers exist in the database to protect against and identify infringement / copyright. Automated queries against this website are stictly prohibited, and all activity is logged and analyzed.